Regional Weather Roundup
Issued by NWS

Home | Current Version | Previous Version | Text Only | Print | Product List | Glossary On
Versions: 1 2 3 4 5 6 7 8 9 10 11 12 13 14 15 16 17 18 19 20 21 22 23 24 25 26 27 28 29 30 31 32 33 34 35 36 37 38 39 40 41 42 43 44 45 46 47 48 49 50
000
ASUS43 KOAX 220310
RWRNE

WEATHER ROUNDUP FOR NEBRASKA
NATIONAL WEATHER SERVICE OMAHA NE
1000 PM CDT SAT OCT 21 2017

NOTES: SATELLITE DATA IS BEING USED TO AUGMENT CLOUD COVER ABOVE
       12000 FEET.
       "FAIR" INDICATES FEW OR NO CLOUDS BELOW 12,000 FEET WITH NO
       SIGNIFICANT WEATHER AND/OR OBSTRUCTIONS TO VISIBILITY.


NEZ001>004-019>022-054>056-220400-
NEBRASKA PANHANDLE

CITY           SKY/WX    TMP DP  RH WIND       PRES   REMARKS
SCOTTSBLUFF    CLEAR     48  15  26 W15       30.06S
ALLIANCE       CLEAR     33  20  58 NW7       30.04S HAZE    WCI  27
CHADRON        CLEAR     33  15  47 W8        30.01R WCI  26
GORDON         FAIR      34  21  59 W3        30.01R
KIMBALL        CLEAR     35  16  45 SW8       30.11S WCI  29
SIDNEY         CLEAR     40  16  37 W13       30.09S WCI  32
$$

NEZ057>060-069>072-079>082-220400-
SOUTHWEST NEBRASKA

CITY           SKY/WX    TMP DP  RH WIND       PRES   REMARKS
NORTH PLATTE   CLEAR     35  27  72 NW6       30.02S WCI  30
IMPERIAL       CLEAR     46  20  35 NW12      30.06R
LEXINGTON      CLEAR     39  28  65 W6        30.02R WCI  35
MCCOOK         CLEAR     46  24  42 W6        30.04R
OGALLALA       CLEAR     37  25  61 W9        30.06R WCI  31
$$

NEZ005>010-023>029-035>040-094-220400-
NORTH CENTRAL NEBRASKA

CITY           SKY/WX    TMP DP  RH WIND       PRES   REMARKS
VALENTINE      CLEAR     37  29  72 W6        29.99R WCI  32
AINSWORTH      CLEAR     40  31  71 W5        29.99R
BROKEN BOW     CLEAR     40  27  59 N3        29.99S
O`NEILL        CLEAR     42  33  69 W6        29.97F
ORD            CLEAR     36  32  85 NW6       29.97S WCI  31
THEDFORD       CLEAR     37  28  71 W6        30.01R WCI  32
$$

NEZ041-046>049-061>064-073>077-083>087-220400-
SOUTH CENTRAL NEBRASKA

CITY           SKY/WX    TMP DP  RH WIND       PRES   REMARKS
GRAND ISLAND   CLOUDY    43  39  86 W6        29.99S
AURORA         PTCLDY    43  38  85 W5        30.00R
HASTINGS       CLOUDY    44  38  79 SW7       30.02R
HEBRON         CLOUDY    51  41  68 NW3       30.01R
HOLDREGE       CLEAR     38  34  85 W3        30.01R
KEARNEY        CLEAR     45  35  68 CALM      30.02R
YORK           MOCLDY    45  39  81 CALM      30.00R
$$

NEZ011>018-030>034-042>045-220400-
NORTHEAST NEBRASKA

CITY           SKY/WX    TMP DP  RH WIND       PRES   REMARKS
NORFOLK        CLOUDY    42  37  82 W5        29.93F
ALBION         CLOUDY    40  36  87 NW3       29.96F
BLAIR          CLOUDY    50  40  68 NW3       29.96R
COLUMBUS       PTCLDY    43  38  82 CALM      29.98R
FREMONT        CLOUDY    44  39  83 W3        29.97R
TEKAMAH        PTCLDY    47  38  71 NW6       29.94S
WAYNE          PTCLDY    38  36  91 S5        29.94F WCI  35
$$

NEZ050>053-065>068-078-088>093-220400-
SOUTHEAST NEBRASKA

CITY           SKY/WX    TMP DP  RH WIND       PRES   REMARKS
LINCOLN        CLOUDY    52  39  61 NW5       29.99R
OMAHA EPPLEY   CLOUDY    53  39  59 NW9       29.95R
BEATRICE       CLOUDY    50  42  72 NW5       30.00R
FALLS CITY     LGT RAIN  55  44  66 N10       29.95R
NEBRASKA CITY  CLOUDY    55  42  60 N10G16    29.97R
PLATTSMOUTH    CLOUDY    54  41  62 NW8       29.97R
$$

NEZ044-045-051>053-067-220400-
OMAHA AREA

CITY           SKY/WX    TMP DP  RH WIND       PRES   REMARKS
OMAHA EPPLEY   CLOUDY    53  39  59 NW9       29.95R
BLAIR          CLOUDY    50  40  68 NW3       29.96R
FREMONT        CLOUDY    44  39  83 W3        29.97R
MILLARD        CLOUDY    54  42  63 NW7       29.97R
OFFUTT AFB     CLOUDY    55  38  54 NW10      29.96R
PLATTSMOUTH    CLOUDY    54  41  62 NW8       29.97R
WAHOO          FAIR      49  38  66 NW5       29.98R
$$



USA.gov is the U.S. government's official web portal to all federal, state and local government web resources and services.